Regional Weather Roundup
Issued by NWS

Home | Current Version | Previous Version | Graphics & Text | Print | Product List | Glossary On
Versions: 1 2 3 4 5 6 7 8 9 10 11 12 13 14 15 16 17 18 19 20 21 22 23 24 25 26 27 28 29 30 31 32 33 34 35 36 37 38 39 40 41 42 43 44 45 46 47 48 49 50
306
ASUS43 KIND 160509
RWRIN

WEATHER ROUNDUP FOR INDIANA
NATIONAL WEATHER SERVICE INDIANAPOLIS IN
100 AM EDT SUN MAY 16 2021

NOTE: "FAIR" INDICATES FEW OR NO CLOUDS BELOW 12,000 FEET WITH NO
SIGNIFICANT WEATHER AND/OR OBSTRUCTIONS TO VISIBILITY.

* - STATION DOES NOT REPORT WEATHER SUCH AS PRECIPITATION OR FOG.

+ - STATION NOT QUALITY CONTROLLED BY THE NATIONAL WEATHER SERVICE.
    USE DATA WITH CAUTION...ESPECIALLY DEWPOINT AND RELATIVE
    HUMIDITY OBSERVATIONS.

INZ001>003-010>013-019-020-160600-
NORTHWEST INDIANA

CITY           SKY/WX    TMP DP  RH WIND       PRES   REMARKS
GARY /AIRPORT/ CLOUDY    57  45  64 SE3       30.17S
KNOX *+        CLOUDY    54  50  87 CALM      30.19S
LA PORTE +     CLOUDY    53  48  81 CALM      30.19S
MICHIGAN CITY+ CLOUDY    55  43  62 SE3       30.18F
MONTICELLO +   CLOUDY    55  49  80 W3        30.18R
RENSSELAER +   CLOUDY    54  45  71 CALM      30.18S
VALPARAISO     CLOUDY    56  45  66 SE6       30.18F

$$

LMZ046-743>745-160600-
SOUTHERN LAKE MICHIGAN

STATION/POSITION TIME  TEMP    WIND        PRES    WAVE
                       AIR SEA DIR/SP/G            HT
                 (UTC) (F)     (DEG/KT/KT) (MB)    (FT)
BURNS HARBOR     0430   59     180/  5/  6 1022.0S
MICHIGAN CITY    0440   59     160/  7/  8 1021.7F

$$

INZ004-005-014>016-021>024-160600-
NORTH CENTRAL INDIANA

CITY           SKY/WX    TMP DP  RH WIND       PRES   REMARKS
GOSHEN         CLOUDY    53  47  79 SE3       30.19S
LOGANSPORT +   CLOUDY    54  46  76 E5        30.18F
PERU/GRISSOM   CLOUDY    58  45  62 E3        30.17S
PLYMOUTH *+    CLOUDY    54  48  82 CALM      30.18F
ROCHESTER +    CLOUDY    55  46  71 CALM      30.19S
SOUTH BEND     CLOUDY    56  46  69 CALM      30.20S
WARSAW +       CLOUDY    54  43  66 CALM      30.19F

$$

INZ006>009-017-018-025>027-160600-
NORTHEAST INDIANA

CITY           SKY/WX    TMP DP  RH WIND       PRES   REMARKS
ANGOLA *+      CLOUDY    54  46  76 CALM      30.20S
AUBURN +       CLOUDY    54  45  71 CALM      30.21R
FORT WAYNE     CLOUDY    56  46  69 CALM      30.21S
HUNTINGTON +   CLOUDY    55  46  70 CALM      30.19F
KENDALLVILLE + CLOUDY    53  46  77 CALM      30.20F

$$

INZ028-029-035-036-043>045-051>053-160600-
WEST CENTRAL INDIANA

CITY           SKY/WX    TMP DP  RH WIND       PRES   REMARKS
CRAWFORDSVL +  CLOUDY    56  42  60 CALM      30.19S
GREENCASTLE +  CLOUDY    58  46  64 W3        30.20S
LAFAYETTE      CLOUDY    58  50  75 CALM      30.17F
TERRE HAUTE    LGT RAIN  57  51  80 CALM      30.19S

$$

INZ030>032-037>040-046>048-054>057-064-065-160600-
CENTRAL INDIANA

CITY           SKY/WX    TMP DP  RH WIND       PRES   REMARKS
ANDERSON +     CLOUDY    58  40  50 CALM      30.19S
FRANKFORT +    CLOUDY    57  48  72 W5        30.18S
INDIANAPOLIS   CLOUDY    59  42  53 SW6       30.18S
-EAGLE CREEK   CLOUDY    62  41  46 SW6       30.18S
KOKOMO +       CLOUDY    57  48  72 E6        30.19S
MARION +       CLOUDY    58  44  60 NE3       30.19S
MT COMFORT *+  CLOUDY    59  48  67 CALM      30.19S
SHELBYVILLE    CLOUDY    63  42  46 SW7       30.18R

$$

INZ033-034-041-042-049-050-058-059-160600-
EAST CENTRAL INDIANA

CITY           SKY/WX    TMP DP  RH WIND       PRES   REMARKS
MUNCIE         CLOUDY    62  41  46 CALM      30.18S
PORTLAND +     CLOUDY    61  36  39 CALM      30.19S
RICHMOND +     CLOUDY    59  43  55 CALM      30.20S

$$

INZ060-061-067>069-081>083-085>088-160600-
SOUTHWEST INDIANA

CITY           SKY/WX    TMP DP  RH WIND       PRES   REMARKS
EVANSVILLE     CLOUDY    58  50  75 CALM      30.19S
HUNTINGBURG +  CLOUDY    57  49  74 E3        30.19F
WASHINGTON +   CLOUDY    58  50  76 SE3       30.18F

$$

INZ062-063-066-070>080-084-089>092-160600-
SOUTH CENTRAL AND SOUTHEAST INDIANA

CITY           SKY/WX    TMP DP  RH WIND       PRES   REMARKS
BATESVILLE +   CLOUDY    57  45  62 VRB6      30.19S
BLOOMINGTON    CLOUDY    58  46  64 CALM      30.19S
JEFFERSONVL +  FAIR      60  49  65 CALM      30.20R
MADISON *+     CLOUDY    59  43  55 W3        30.21S

$$





USA.gov is the U.S. government's official web portal to all federal, state and local government web resources and services.